Wetterdaten: Woche 17.11.14 - 23.11.14 (KW47)
Datum Zeit Temp. Aussen +5cm Feuchte Auss Luftdruck Regen Sonnenschein Regendauer Solar Windben
17.11.2014 00:00 7,9 C 6,7 C 98 % 1000,7 hPa 0,0 l/m 0,00 h 0,00 h 0 W/m 9,8 km/h (2 Bft)
17.11.2014 01:00 7,8 C 6,7 C 99 % 1000,8 hPa 0,0 l/m 0,00 h 0,00 h 0 W/m 12,2 km/h (2 Bft)
17.11.2014 02:00 8,2 C 7,2 C 99 % 1001,1 hPa 0,0 l/m 0,00 h 0,00 h 0 W/m 18,6 km/h (3 Bft)
17.11.2014 03:00 8,3 C 7,2 C 99 % 1001,2 hPa 0,0 l/m 0,00 h 0,00 h 0 W/m 15,7 km/h (3 Bft)
17.11.2014 04:00 8,3 C 7,1 C 98 % 1001,5 hPa 0,0 l/m 0,00 h 0,00 h 0 W/m 18,2 km/h (3 Bft)
17.11.2014 05:00 8,3 C 7,1 C 98 % 1002,1 hPa 0,2 l/m 0,00 h 0,20 h 0 W/m 18,7 km/h (3 Bft)
17.11.2014 06:00 8,4 C 7,0 C 98 % 1002,4 hPa 0,0 l/m 0,00 h 0,03 h 0 W/m 17,4 km/h (3 Bft)
17.11.2014 07:00 8,3 C 6,8 C 97 % 1002,8 hPa 0,0 l/m 0,00 h 0,00 h 2 W/m 17,5 km/h (3 Bft)
17.11.2014 08:00 8,5 C 7,2 C 97 % 1003,5 hPa 0,0 l/m 0,00 h 0,00 h 16 W/m 18,9 km/h (3 Bft)
17.11.2014 09:00 8,7 C 7,4 C 97 % 1004,0 hPa 0,0 l/m 0,00 h 0,00 h 54 W/m 17,6 km/h (3 Bft)
17.11.2014 10:00 9,2 C 8,3 C 96 % 1004,2 hPa 0,0 l/m 0,27 h 0,00 h 142 W/m 20,3 km/h (4 Bft)
17.11.2014 11:00 10,5 C 9,1 C 92 % 1004,6 hPa 0,0 l/m 0,30 h 0,00 h 164 W/m 22,4 km/h (4 Bft)
17.11.2014 12:00 11,1 C 10,0 C 88 % 1004,7 hPa 0,0 l/m 0,33 h 0,00 h 174 W/m 20,5 km/h (4 Bft)
17.11.2014 13:00 11,4 C 10,5 C 86 % 1004,9 hPa 0,0 l/m 0,07 h 0,00 h 137 W/m 17,5 km/h (3 Bft)
17.11.2014 14:00 11,5 C 10,1 C 84 % 1005,0 hPa 0,0 l/m 0,00 h 0,00 h 75 W/m 11,4 km/h (2 Bft)
17.11.2014 15:00 11,3 C 9,3 C 85 % 1005,1 hPa 0,0 l/m 0,00 h 0,00 h 42 W/m 4,5 km/h (1 Bft)
17.11.2014 16:00 11,0 C 8,9 C 87 % 1005,6 hPa 0,0 l/m 0,00 h 0,10 h 13 W/m 5,7 km/h (1 Bft)
17.11.2014 17:00 10,6 C 8,2 C 89 % 1006,0 hPa 0,2 l/m 0,00 h 0,23 h 0 W/m 7,5 km/h (2 Bft)
17.11.2014 18:00 10,1 C 7,8 C 90 % 1006,4 hPa 0,0 l/m 0,00 h 0,00 h 0 W/m 8,5 km/h (2 Bft)
17.11.2014 19:00 9,8 C 7,8 C 90 % 1006,7 hPa 0,0 l/m 0,00 h 0,00 h 0 W/m 6,4 km/h (2 Bft)
17.11.2014 20:00 9,6 C 7,6 C 91 % 1007,1 hPa 0,0 l/m 0,00 h 0,00 h 0 W/m 3,7 km/h (1 Bft)
17.11.2014 21:00 9,2 C 7,0 C 91 % 1007,3 hPa 0,0 l/m 0,00 h 0,00 h 0 W/m 3,8 km/h (1 Bft)
17.11.2014 22:00 8,6 C 6,7 C 92 % 1007,3 hPa 0,0 l/m 0,00 h 0,00 h 0 W/m 4,8 km/h (1 Bft)
17.11.2014 23:00 8,0 C 5,6 C 93 % 1007,3 hPa 0,0 l/m 0,00 h 0,00 h 0 W/m 2,7 km/h (1 Bft)
18.11.2014 00:00 7,1 C 5,6 C 93 % 1007,5 hPa 0,0 l/m 0,00 h 0,00 h 0 W/m 1,2 km/h (1 Bft)
18.11.2014 01:00 6,9 C 5,9 C 94 % 1007,4 hPa 0,0 l/m 0,00 h 0,00 h 0 W/m 3,6 km/h (1 Bft)
18.11.2014 02:00 7,1 C 6,0 C 95 % 1007,5 hPa 0,0 l/m 0,00 h 0,00 h 0 W/m 4,1 km/h (1 Bft)
18.11.2014 03:00 7,3 C 6,3 C 96 % 1007,4 hPa 0,0 l/m 0,00 h 0,00 h 0 W/m 5,0 km/h (1 Bft)
18.11.2014 04:00 7,3 C 6,6 C 96 % 1007,7 hPa 0,0 l/m 0,00 h 0,00 h 0 W/m 2,8 km/h (1 Bft)
18.11.2014 05:00 7,5 C 6,7 C 96 % 1007,8 hPa 0,0 l/m 0,00 h 0,00 h 0 W/m 5,6 km/h (1 Bft)
18.11.2014 06:00 7,7 C 6,9 C 97 % 1008,1 hPa 0,0 l/m 0,00 h 0,00 h 0 W/m 8,6 km/h (2 Bft)
18.11.2014 07:00 7,8 C 7,0 C 97 % 1008,4 hPa 0,0 l/m 0,00 h 0,00 h 0 W/m 13,5 km/h (3 Bft)
18.11.2014 08:00 7,7 C 6,8 C 96 % 1008,6 hPa 0,0 l/m 0,00 h 0,00 h 15 W/m 11,9 km/h (2 Bft)
18.11.2014 09:00 8,0 C 7,4 C 96 % 1008,9 hPa 0,0 l/m 0,00 h 0,00 h 40 W/m 15,7 km/h (3 Bft)
18.11.2014 10:00 8,4 C 7,8 C 95 % 1009,2 hPa 0,0 l/m 0,00 h 0,00 h 45 W/m 15,7 km/h (3 Bft)
18.11.2014 11:00 8,7 C 7,8 C 94 % 1009,3 hPa 0,0 l/m 0,00 h 0,00 h 47 W/m 14,4 km/h (3 Bft)
18.11.2014 12:00 9,0 C 8,3 C 94 % 1009,3 hPa 0,0 l/m 0,00 h 0,00 h 80 W/m 17,4 km/h (3 Bft)
18.11.2014 13:00 9,4 C 8,3 C 93 % 1009,3 hPa 0,0 l/m 0,00 h 0,23 h 102 W/m 14,6 km/h (3 Bft)
18.11.2014 14:00 9,4 C 8,3 C 94 % 1009,4 hPa 0,0 l/m 0,00 h 0,00 h 82 W/m 14,0 km/h (3 Bft)
18.11.2014 15:00 9,1 C 7,9 C 94 % 1009,8 hPa 0,0 l/m 0,00 h 0,00 h 18 W/m 15,3 km/h (3 Bft)
18.11.2014 16:00 8,7 C 7,8 C 95 % 1010,1 hPa 0,0 l/m 0,00 h 0,00 h 9 W/m 14,0 km/h (3 Bft)
18.11.2014 17:00 8,6 C 7,8 C 95 % 1010,6 hPa 0,0 l/m 0,00 h 0,00 h 0 W/m 11,9 km/h (2 Bft)
18.11.2014 18:00 8,4 C 7,4 C 94 % 1010,9 hPa 0,0 l/m 0,00 h 0,00 h 0 W/m 10,3 km/h (2 Bft)
18.11.2014 19:00 8,3 C 7,2 C 94 % 1011,4 hPa 0,0 l/m 0,00 h 0,00 h 0 W/m 10,5 km/h (2 Bft)
18.11.2014 20:00 8,1 C 7,2 C 95 % 1012,0 hPa 0,0 l/m 0,00 h 0,00 h 0 W/m 13,0 km/h (3 Bft)
18.11.2014 21:00 7,9 C 7,2 C 95 % 1012,7 hPa 0,0 l/m 0,00 h 0,00 h 0 W/m 10,8 km/h (2 Bft)
18.11.2014 22:00 7,9 C 7,1 C 95 % 1013,0 hPa 0,0 l/m 0,00 h 0,00 h 0 W/m 9,2 km/h (2 Bft)
18.11.2014 23:00 7,9 C 6,7 C 96 % 1013,2 hPa 0,0 l/m 0,00 h 0,00 h 0 W/m 7,8 km/h (2 Bft)
19.11.2014 00:00 7,8 C 6,7 C 96 % 1013,6 hPa 0,0 l/m 0,00 h 0,00 h 0 W/m 7,3 km/h (2 Bft)
19.11.2014 01:00 7,8 C 6,7 C 96 % 1013,8 hPa 0,0 l/m 0,00 h 0,00 h 0 W/m 7,8 km/h (2 Bft)
19.11.2014 02:00 7,7 C 6,7 C 96 % 1014,2 hPa 0,0 l/m 0,00 h 0,00 h 0 W/m 8,2 km/h (2 Bft)
19.11.2014 03:00 7,7 C 6,7 C 97 % 1014,7 hPa 0,0 l/m 0,00 h 0,00 h 0 W/m 7,3 km/h (2 Bft)
19.11.2014 04:00 7,7 C 6,7 C 97 % 1015,4 hPa 0,0 l/m 0,00 h 0,00 h 0 W/m 3,5 km/h (1 Bft)
19.11.2014 05:00 7,7 C 6,7 C 97 % 1016,0 hPa 0,0 l/m 0,00 h 0,00 h 0 W/m 3,8 km/h (1 Bft)
19.11.2014 06:00 7,6 C 6,7 C 97 % 1016,6 hPa 0,0 l/m 0,00 h 0,00 h 0 W/m 4,9 km/h (1 Bft)
19.11.2014 07:00 7,5 C 6,7 C 97 % 1017,5 hPa 0,0 l/m 0,00 h 0,00 h 0 W/m 6,0 km/h (2 Bft)
19.11.2014 08:00 7,4 C 6,7 C 96 % 1018,5 hPa 0,0 l/m 0,00 h 0,00 h 10 W/m 4,3 km/h (1 Bft)
19.11.2014 09:00 7,6 C 7,0 C 94 % 1019,2 hPa 0,0 l/m 0,00 h 0,00 h 29 W/m 4,8 km/h (1 Bft)
19.11.2014 10:00 7,8 C 7,2 C 93 % 1019,9 hPa 0,0 l/m 0,00 h 0,00 h 40 W/m 4,2 km/h (1 Bft)
19.11.2014 11:00 8,1 C 7,2 C 91 % 1020,5 hPa 0,0 l/m 0,00 h 0,00 h 49 W/m 5,2 km/h (1 Bft)
19.11.2014 12:00 8,2 C 7,5 C 92 % 1020,9 hPa 0,0 l/m 0,00 h 0,00 h 52 W/m 5,6 km/h (1 Bft)
19.11.2014 13:00 8,3 C 7,8 C 91 % 1021,1 hPa 0,0 l/m 0,00 h 0,00 h 67 W/m 9,0 km/h (2 Bft)
19.11.2014 14:00 8,5 C 7,8 C 90 % 1021,6 hPa 0,0 l/m 0,00 h 0,00 h 42 W/m 7,1 km/h (2 Bft)
19.11.2014 15:00 8,4 C 7,4 C 90 % 1022,3 hPa 0,0 l/m 0,00 h 0,00 h 18 W/m 7,6 km/h (2 Bft)
19.11.2014 16:00 8,2 C 7,2 C 90 % 1022,6 hPa 0,0 l/m 0,00 h 0,00 h 6 W/m 6,9 km/h (2 Bft)
19.11.2014 17:00 8,0 C 6,9 C 91 % 1023,0 hPa 0,0 l/m 0,00 h 0,00 h 0 W/m 4,8 km/h (1 Bft)
19.11.2014 18:00 7,9 C 6,7 C 91 % 1023,4 hPa 0,0 l/m 0,00 h 0,00 h 0 W/m 4,2 km/h (1 Bft)
19.11.2014 19:00 7,9 C 6,8 C 93 % 1023,9 hPa 0,0 l/m 0,00 h 0,00 h 0 W/m 7,8 km/h (2 Bft)
19.11.2014 20:00 7,8 C 6,6 C 93 % 1024,1 hPa 0,0 l/m 0,00 h 0,00 h 0 W/m 8,3 km/h (2 Bft)
19.11.2014 21:00 7,4 C 6,0 C 94 % 1024,8 hPa 0,0 l/m 0,00 h 0,00 h 0 W/m 4,0 km/h (1 Bft)
19.11.2014 22:00 6,9 C 4,7 C 94 % 1025,3 hPa 0,0 l/m 0,00 h 0,00 h 0 W/m 2,6 km/h (1 Bft)
19.11.2014 23:00 5,8 C 3,9 C 93 % 1025,3 hPa 0,0 l/m 0,00 h 0,00 h 0 W/m 1,3 km/h (1 Bft)
20.11.2014 00:00 5,0 C 3,4 C 93 % 1025,2 hPa 0,0 l/m 0,00 h 0,00 h 0 W/m 1,3 km/h (1 Bft)
20.11.2014 01:00 4,3 C 2,8 C 94 % 1025,4 hPa 0,0 l/m 0,00 h 0,00 h 0 W/m 1,7 km/h (1 Bft)
20.11.2014 02:00 3,7 C 2,3 C 94 % 1025,6 hPa 0,0 l/m 0,00 h 0,00 h 0 W/m 0,4 km/h (0 Bft)
20.11.2014 03:00 3,2 C 1,9 C 94 % 1025,6 hPa 0,0 l/m 0,00 h 0,00 h 0 W/m 0,6 km/h (0 Bft)
20.11.2014 04:00 2,6 C 1,5 C 95 % 1025,7 hPa 0,0 l/m 0,00 h 0,00 h 0 W/m 1,9 km/h (1 Bft)
20.11.2014 05:00 2,3 C 1,6 C 95 % 1026,0 hPa 0,0 l/m 0,00 h 0,00 h 0 W/m 0,8 km/h (0 Bft)
20.11.2014 06:00 2,4 C 1,5 C 96 % 1026,0 hPa 0,0 l/m 0,00 h 0,00 h 0 W/m 1,3 km/h (1 Bft)
20.11.2014 07:00 2,2 C 1,2 C 96 % 1026,3 hPa 0,0 l/m 0,00 h 0,00 h 4 W/m 0,8 km/h (0 Bft)
20.11.2014 08:00 2,0 C 1,6 C 96 % 1026,5 hPa 0,0 l/m 0,07 h 0,00 h 22 W/m 3,4 km/h (1 Bft)
20.11.2014 09:00 3,1 C 3,0 C 97 % 1026,8 hPa 0,0 l/m 0,00 h 0,00 h 77 W/m 6,8 km/h (2 Bft)
20.11.2014 10:00 4,3 C 4,3 C 97 % 1026,9 hPa 0,0 l/m 0,00 h 0,00 h 99 W/m 9,4 km/h (2 Bft)
20.11.2014 11:00 5,1 C 5,1 C 98 % 1027,1 hPa 0,0 l/m 0,00 h 0,00 h 118 W/m 13,2 km/h (3 Bft)
20.11.2014 12:00 5,5 C 5,6 C 98 % 1026,8 hPa 0,0 l/m 0,00 h 0,00 h 105 W/m 13,0 km/h (3 Bft)
20.11.2014 13:00 6,1 C 6,1 C 98 % 1026,7 hPa 0,0 l/m 0,00 h 0,00 h 99 W/m 13,3 km/h (3 Bft)
20.11.2014 14:00 6,4 C 6,2 C 98 % 1026,4 hPa 0,0 l/m 0,23 h 0,00 h 108 W/m 12,6 km/h (3 Bft)
20.11.2014 15:00 6,9 C 6,1 C 97 % 1026,0 hPa 0,0 l/m 0,00 h 0,00 h 27 W/m 10,8 km/h (2 Bft)
20.11.2014 16:00 7,1 C 6,1 C 95 % 1025,9 hPa 0,0 l/m 0,00 h 0,00 h 7 W/m 10,3 km/h (2 Bft)
20.11.2014 17:00 7,2 C 6,1 C 93 % 1026,1 hPa 0,0 l/m 0,00 h 0,00 h 0 W/m 10,9 km/h (2 Bft)
20.11.2014 18:00 7,0 C 6,1 C 92 % 1026,0 hPa 0,0 l/m 0,00 h 0,00 h 0 W/m 10,3 km/h (2 Bft)
20.11.2014 19:00 6,6 C 4,3 C 92 % 1026,1 hPa 0,0 l/m 0,00 h 0,00 h 0 W/m 6,8 km/h (2 Bft)
20.11.2014 20:00 5,3 C 2,9 C 92 % 1026,0 hPa 0,0 l/m 0,00 h 0,00 h 0 W/m 8,5 km/h (2 Bft)
20.11.2014 21:00 4,5 C 2,8 C 93 % 1026,1 hPa 0,0 l/m 0,00 h 0,00 h 0 W/m 10,3 km/h (2 Bft)
20.11.2014 22:00 4,2 C 2,8 C 94 % 1026,1 hPa 0,0 l/m 0,00 h 0,00 h 0 W/m 10,1 km/h (2 Bft)
20.11.2014 23:00 3,9 C 2,5 C 95 % 1025,8 hPa 0,0 l/m 0,00 h 0,00 h 0 W/m 9,0 km/h (2 Bft)
21.11.2014 00:00 3,4 C 1,8 C 95 % 1025,5 hPa 0,0 l/m 0,00 h 0,00 h 0 W/m 7,8 km/h (2 Bft)
21.11.2014 01:00 2,9 C 1,7 C 96 % 1025,0 hPa 0,0 l/m 0,00 h 0,00 h 0 W/m 9,4 km/h (2 Bft)
21.11.2014 02:00 2,8 C 1,7 C 96 % 1024,7 hPa 0,2 l/m 0,00 h 0,00 h 0 W/m 11,2 km/h (2 Bft)
21.11.2014 03:00 2,4 C 1,1 C 96 % 1024,4 hPa 0,0 l/m 0,00 h 0,00 h 0 W/m 8,9 km/h (2 Bft)
21.11.2014 04:00 2,0 C 1,0 C 96 % 1024,0 hPa 0,0 l/m 0,00 h 0,00 h 0 W/m 11,0 km/h (2 Bft)
21.11.2014 05:00 1,9 C 1,0 C 97 % 1023,6 hPa 0,0 l/m 0,00 h 0,00 h 0 W/m 10,5 km/h (2 Bft)
21.11.2014 06:00 1,7 C 0,6 C 97 % 1023,1 hPa 0,0 l/m 0,00 h 0,00 h 0 W/m 11,1 km/h (2 Bft)
21.11.2014 07:00 1,6 C 0,6 C 97 % 1023,0 hPa 0,0 l/m 0,00 h 0,00 h 0 W/m 9,8 km/h (2 Bft)
21.11.2014 08:00 1,5 C 0,6 C 97 % 1023,1 hPa 0,0 l/m 0,00 h 0,00 h 17 W/m 12,1 km/h (2 Bft)
21.11.2014 09:00 2,1 C 1,8 C 97 % 1022,9 hPa 0,0 l/m 0,93 h 0,00 h 123 W/m 11,8 km/h (2 Bft)
21.11.2014 10:00 4,0 C 3,5 C 98 % 1022,8 hPa 0,0 l/m 1,00 h 0,00 h 210 W/m 13,4 km/h (3 Bft)
21.11.2014 11:00 6,6 C 5,3 C 96 % 1022,4 hPa 0,0 l/m 1,00 h 0,00 h 255 W/m 15,5 km/h (3 Bft)
21.11.2014 12:00 9,2 C 7,1 C 82 % 1021,8 hPa 0,0 l/m 0,98 h 0,00 h 284 W/m 18,3 km/h (3 Bft)
21.11.2014 13:00 10,3 C 7,8 C 75 % 1021,0 hPa 0,0 l/m 1,00 h 0,00 h 247 W/m 21,7 km/h (4 Bft)
21.11.2014 14:00 10,3 C 7,8 C 73 % 1020,5 hPa 0,0 l/m 1,00 h 0,00 h 159 W/m 21,5 km/h (4 Bft)
21.11.2014 15:00 9,5 C 7,0 C 74 % 1020,3 hPa 0,0 l/m 0,07 h 0,00 h 58 W/m 14,7 km/h (3 Bft)
21.11.2014 16:00 8,5 C 5,6 C 77 % 1020,0 hPa 0,0 l/m 0,03 h 0,00 h 14 W/m 11,5 km/h (2 Bft)
21.11.2014 17:00 7,4 C 4,8 C 81 % 1019,9 hPa 0,0 l/m 0,00 h 0,00 h 0 W/m 12,3 km/h (3 Bft)
21.11.2014 18:00 6,7 C 4,4 C 84 % 1019,7 hPa 0,0 l/m 0,00 h 0,00 h 0 W/m 14,0 km/h (3 Bft)
21.11.2014 19:00 6,3 C 4,4 C 86 % 1019,6 hPa 0,0 l/m 0,00 h 0,00 h 0 W/m 13,6 km/h (3 Bft)
21.11.2014 20:00 6,0 C 4,4 C 87 % 1019,5 hPa 0,0 l/m 0,00 h 0,00 h 0 W/m 16,5 km/h (3 Bft)
21.11.2014 21:00 5,8 C 4,4 C 88 % 1019,6 hPa 0,0 l/m 0,00 h 0,00 h 0 W/m 17,6 km/h (3 Bft)
21.11.2014 22:00 5,7 C 4,1 C 88 % 1019,3 hPa 0,0 l/m 0,00 h 0,00 h 0 W/m 16,8 km/h (3 Bft)
21.11.2014 23:00 5,3 C 3,9 C 89 % 1019,2 hPa 0,0 l/m 0,00 h 0,00 h 0 W/m 15,1 km/h (3 Bft)
22.11.2014 00:00 5,1 C 3,5 C 90 % 1019,1 hPa 0,0 l/m 0,00 h 0,00 h 0 W/m 12,6 km/h (3 Bft)
22.11.2014 01:00 4,8 C 3,3 C 91 % 1018,7 hPa 0,0 l/m 0,00 h 0,00 h 0 W/m 14,4 km/h (3 Bft)
22.11.2014 02:00 4,9 C 3,8 C 91 % 1018,2 hPa 0,0 l/m 0,00 h 0,00 h 0 W/m 15,3 km/h (3 Bft)
22.11.2014 03:00 4,9 C 3,5 C 91 % 1018,4 hPa 0,0 l/m 0,00 h 0,00 h 0 W/m 13,7 km/h (3 Bft)
22.11.2014 04:00 4,7 C 3,3 C 92 % 1018,1 hPa 0,0 l/m 0,00 h 0,00 h 0 W/m 15,1 km/h (3 Bft)
22.11.2014 05:00 4,4 C 3,3 C 93 % 1017,8 hPa 0,0 l/m 0,00 h 0,00 h 0 W/m 16,9 km/h (3 Bft)
22.11.2014 06:00 4,3 C 3,2 C 93 % 1017,7 hPa 0,0 l/m 0,00 h 0,00 h 0 W/m 17,3 km/h (3 Bft)
22.11.2014 07:00 4,3 C 3,3 C 93 % 1017,9 hPa 0,0 l/m 0,00 h 0,00 h 0 W/m 18,4 km/h (3 Bft)
22.11.2014 08:00 4,4 C 3,4 C 94 % 1018,0 hPa 0,0 l/m 0,00 h 0,00 h 24 W/m 19,4 km/h (3 Bft)
22.11.2014 09:00 5,1 C 4,3 C 94 % 1018,0 hPa 0,0 l/m 0,97 h 0,00 h 101 W/m 18,1 km/h (3 Bft)
22.11.2014 10:00 6,4 C 5,6 C 92 % 1018,3 hPa 0,0 l/m 0,73 h 0,00 h 152 W/m 19,6 km/h (3 Bft)
22.11.2014 11:00 7,5 C 6,2 C 90 % 1018,2 hPa 0,0 l/m 0,40 h 0,00 h 140 W/m 17,5 km/h (3 Bft)
22.11.2014 12:00 9,7 C 8,0 C 87 % 1018,0 hPa 0,0 l/m 0,58 h 0,00 h 196 W/m 20,0 km/h (4 Bft)
22.11.2014 13:00 10,1 C 8,4 C 87 % 1017,8 hPa 0,0 l/m 0,63 h 0,00 h 183 W/m 18,9 km/h (3 Bft)
22.11.2014 14:00 11,2 C 9,1 C 85 % 1017,6 hPa 0,0 l/m 0,90 h 0,00 h 147 W/m 19,9 km/h (4 Bft)
22.11.2014 15:00 10,8 C 8,8 C 87 % 1017,4 hPa 0,0 l/m 0,00 h 0,00 h 52 W/m 16,2 km/h (3 Bft)
22.11.2014 16:00 10,2 C 7,9 C 88 % 1017,5 hPa 0,0 l/m 0,10 h 0,00 h 14 W/m 12,8 km/h (3 Bft)
22.11.2014 17:00 9,4 C 7,2 C 90 % 1017,5 hPa 0,0 l/m 0,00 h 0,00 h 0 W/m 15,9 km/h (3 Bft)
22.11.2014 18:00 8,9 C 7,1 C 91 % 1017,8 hPa 0,0 l/m 0,00 h 0,00 h 0 W/m 14,1 km/h (3 Bft)
22.11.2014 19:00 8,6 C 6,8 C 92 % 1017,7 hPa 0,0 l/m 0,00 h 0,00 h 0 W/m 15,1 km/h (3 Bft)
22.11.2014 20:00 8,4 C 6,9 C 92 % 1017,7 hPa 0,0 l/m 0,00 h 0,00 h 0 W/m 18,5 km/h (3 Bft)
22.11.2014 21:00 8,4 C 7,2 C 92 % 1018,0 hPa 0,0 l/m 0,00 h 0,00 h 0 W/m 16,2 km/h (3 Bft)
22.11.2014 22:00 8,4 C 7,2 C 92 % 1018,2 hPa 0,0 l/m 0,00 h 0,00 h 0 W/m 16,2 km/h (3 Bft)
22.11.2014 23:00 8,4 C 6,8 C 93 % 1018,5 hPa 0,0 l/m 0,00 h 0,00 h 0 W/m 13,7 km/h (3 Bft)
23.11.2014 00:00 8,3 C 6,7 C 93 % 1018,6 hPa 0,0 l/m 0,00 h 0,00 h 0 W/m 16,0 km/h (3 Bft)
23.11.2014 01:00 8,1 C 6,7 C 93 % 1018,5 hPa 0,0 l/m 0,00 h 0,00 h 0 W/m 16,3 km/h (3 Bft)
23.11.2014 02:00 8,1 C 6,7 C 93 % 1018,5 hPa 0,0 l/m 0,00 h 0,00 h 0 W/m 16,9 km/h (3 Bft)
23.11.2014 03:00 8,3 C 7,1 C 94 % 1018,4 hPa 0,0 l/m 0,00 h 0,00 h 0 W/m 18,5 km/h (3 Bft)
23.11.2014 04:00 8,5 C 7,2 C 93 % 1018,2 hPa 0,0 l/m 0,00 h 0,00 h 0 W/m 19,6 km/h (3 Bft)
23.11.2014 05:00 8,4 C 7,0 C 93 % 1018,0 hPa 0,0 l/m 0,00 h 0,00 h 0 W/m 17,1 km/h (3 Bft)
23.11.2014 06:00 8,2 C 6,7 C 93 % 1017,8 hPa 0,0 l/m 0,00 h 0,00 h 0 W/m 15,1 km/h (3 Bft)
23.11.2014 07:00 8,1 C 6,5 C 93 % 1018,0 hPa 0,0 l/m 0,00 h 0,00 h 6 W/m 15,5 km/h (3 Bft)
23.11.2014 08:00 7,7 C 6,3 C 94 % 1018,0 hPa 0,0 l/m 0,70 h 0,00 h 31 W/m 16,6 km/h (3 Bft)
23.11.2014 09:00 8,1 C 7,1 C 93 % 1018,0 hPa 0,0 l/m 0,80 h 0,00 h 100 W/m 18,3 km/h (3 Bft)
23.11.2014 10:00 8,9 C 7,9 C 92 % 1018,1 hPa 0,0 l/m 0,90 h 0,00 h 181 W/m 20,1 km/h (4 Bft)
23.11.2014 11:00 10,9 C 9,4 C 87 % 1017,8 hPa 0,0 l/m 1,00 h 0,00 h 255 W/m 20,3 km/h (4 Bft)
23.11.2014 12:00 12,0 C 10,2 C 84 % 1017,2 hPa 0,0 l/m 0,97 h 0,00 h 226 W/m 21,9 km/h (4 Bft)
23.11.2014 13:00 12,8 C 10,7 C 82 % 1016,3 hPa 0,0 l/m 0,93 h 0,00 h 211 W/m 22,7 km/h (4 Bft)
23.11.2014 14:00 12,6 C 10,6 C 82 % 1015,7 hPa 0,0 l/m 0,83 h 0,00 h 138 W/m 22,0 km/h (4 Bft)
23.11.2014 15:00 12,0 C 10,1 C 84 % 1015,2 hPa 0,0 l/m 0,23 h 0,00 h 61 W/m 22,7 km/h (4 Bft)
23.11.2014 16:00 11,4 C 9,3 C 87 % 1014,7 hPa 0,0 l/m 0,13 h 0,00 h 15 W/m 19,4 km/h (3 Bft)
23.11.2014 17:00 10,9 C 8,9 C 88 % 1014,6 hPa 0,0 l/m 0,00 h 0,00 h 0 W/m 19,4 km/h (3 Bft)
23.11.2014 18:00 10,7 C 9,3 C 88 % 1014,7 hPa 0,0 l/m 0,00 h 0,00 h 0 W/m 23,8 km/h (4 Bft)
23.11.2014 19:00 10,3 C 8,6 C 87 % 1014,5 hPa 0,0 l/m 0,00 h 0,00 h 0 W/m 22,0 km/h (4 Bft)
23.11.2014 20:00 9,8 C 8,3 C 88 % 1014,6 hPa 0,0 l/m 0,00 h 0,00 h 0 W/m 22,9 km/h (4 Bft)
23.11.2014 21:00 9,8 C 8,3 C 88 % 1014,8 hPa 0,0 l/m 0,00 h 0,00 h 0 W/m 21,0 km/h (4 Bft)
23.11.2014 22:00 9,7 C 8,3 C 89 % 1015,2 hPa 0,0 l/m 0,00 h 0,00 h 0 W/m 15,3 km/h (3 Bft)
23.11.2014 23:00 9,6 C 8,3 C 90 % 1015,5 hPa 0,0 l/m 0,00 h 0,00 h 0 W/m 11,7 km/h (2 Bft)
Min-Datum _ 21.11.14 21.11.14 21.11.14 17.11.14 - - - - 17.11.14
_ Min-Zeit 07:02 07:46 14:22 00:00 - - - - 20:24
Minimum _ 1,5 C 0,0 C 72 % 1000,6 hPa - - - - 0,0 km/h (0 Bft)
Max-Datum _ 23.11.14 23.11.14 17.11.14 20.11.14 17.11.14 17.11.14 17.11.14 17.11.14 23.11.14
_ Max-Zeit 13:22 13:08 00:00 11:32 05:36 10:44 05:34 10:52 15:00
Maximum _ 12,9 C 11,1 C 99 % 1027,2 hPa 0,2 l/m 0,03 h 0,03 h 342 W/m 37,7 km/h
S-SO (5 Bft)
Durchschnitt _ 7,4 C 6,1 C 92 % 1016,6 hPa #0,6 l/m #18:06 h #48 min. 88 W/m 12,1 km/h (2 Bft)
© 2015 W. Hausmann